Retour au catalogue

GJZ 02

ActifScienceLEO
NORAD 62291·PAYLOAD·🇨🇳 China

Lancé Dec 12, 2024 depuis Jiuquan Satellite Launch Center

Loading…

Prochains Passages (prochaines 24 heures)

TLE

FraisSource: Space-Track

Époque: Sep 14, 2026, 15:02 UTC

1 62291U 24238B   26257.62669053 -.00000039  00000-0  83066-4 0  9998
2 62291  59.9203 340.0978 0007123  87.7441 272.4382 13.75213551 88585

Suivez GJZ 02 en temps réel avec AllMySat

Download on the App Store